This demonstration page uses our WeatherBlox Daily Observations layout. Learn more.

Left ArrowRight Arrow

41.86663, -103.66717

Hourly Observations for November 2, 2016

Temp ( °F °C ) Dew Point ( °F °C ) Humidity (%) Winds ( mph kmh ) Pressure ( in mb ) Visibility ( mi km ) Precip ( " mm )
12:53 am 00:53 Cloudy 47 8.3 29 -1.7 50 50 N N/A 30.06 1018 10 16 N/A
1:53 am 01:53 Cloudy with Light Rain 51 10.6 32 undefined 48 48 W 3 6 30.07 1018 10 16 N/A
2:53 am 02:53 Cloudy with Light Rain 49 9.4 40 4.4 71 71 SW 6 9 30.07 1018 8 13 0.01 0.25
3:53 am 03:53 Partly Cloudy 47 8.3 41 5 80 80 WNW 7 11 30.06 1018 10 16 N/A
4:53 am 04:53 Clear 46 7.8 41 5 83 83 NW 9 15 30.10 1019 10 16 N/A
5:53 am 05:53 Clear 43 6.1 38 3.3 82 82 NW 7 11 30.15 1021 10 16 N/A
6:53 am 06:53 Clear 42 5.6 37 2.8 82 82 NW 9 15 30.18 1022 10 16 N/A
7:53 am 07:53 Sunny 43 6.1 36 2.2 76 76 WNW 8 13 30.21 1023 10 16 N/A
8:53 am 08:53 Sunny 44 6.7 34 1.1 68 68 WNW 10 17 30.24 1024 10 16 N/A
9:53 am 09:53 Sunny 48 8.9 35 1.7 61 61 WNW 15 24 30.26 1025 10 16 N/A
10:53 am 10:53 Sunny 54 12.2 32 undefined 43 43 NW 15 24 30.26 1025 10 16 N/A
11:53 am 11:53 Sunny 58 14.4 35 1.7 42 42 WNW 8 13 30.26 1025 10 16 N/A
12:53 pm 12:53 Sunny 60 15.6 35 1.7 39 39 NW 6 9 30.24 1024 10 16 N/A
1:53 pm 13:53 Sunny 63 17.2 35 1.7 35 35 WNW 8 13 30.22 1023 10 16 N/A
2:53 pm 14:53 Sunny 66 18.9 29 -1.7 25 25 N 6 9 30.21 1023 10 16 N/A
3:53 pm 15:53 Sunny 65 18.3 29 -1.7 26 26 WNW 5 7 30.23 1024 10 16 N/A
4:53 pm 16:53 Sunny 64 17.8 29 -1.7 27 27 WNW 7 11 30.24 1024 10 16 N/A
5:53 pm 17:53 Clear 55 12.8 29 -1.7 37 37 WSW 8 13 30.28 1025 10 16 N/A
6:53 pm 18:53 Clear 49 9.4 29 -1.7 46 46 N N/A 30.30 1026 10 16 N/A
7:53 pm 19:53 Clear 40 4.4 27 -2.8 60 60 N N/A 30.34 1027 10 16 N/A
8:53 pm 20:53 Clear 41 5 28 -2.2 60 60 ENE 5 7 30.35 1028 10 16 N/A
9:53 pm 21:53 Clear 39 3.9 27 -2.8 62 62 N N/A 30.37 1028 10 16 N/A
10:53 pm 22:53 Clear 33 0.6 26 -3.3 75 75 NNW 5 7 30.37 1029 10 16 N/A
11:53 pm 23:53 Clear 35 1.7 26 -3.3 70 70 N 6 9 30.37 1028 10 16 N/A

Powered by AerisWeather